USA 169 (MILSTAR-2 4)

Last updated on Sat Mar 14 2026 00:02:52 GMT+0000 (Coordinated Universal Time)

1 27711U 03012A 26072.17233686 -.00000241 00000+0 00000+0 0 9993 2 27711 12.2041 30.6057 0100781 4.1424 350.2382 1.00271508 31981
UTC large
Height (km)
Speed (km/s)
/
Latitude / Longitude
Inclination (degrees)
Orbital Period (minutes)
Azimuth
Elevation
Range (km)
Doppler Factor

Next 0 passes for location: London (51.5072 / 0.1276)

Sorry there are no passes over London.